Temp
20 20 20 20 21 21 21 21 21 21 22 22 21 21 21 21 21 23 24 25 25 24 25 24 25 26 25 25 23 22 22 22 21 21 20 20 20 19 19 19 19 19 19 18 18 19 19 20 19 18 18 18 18 18 17 17 17 17 17 17 17 17 17 17 17 17 18 17 17 17 17 17 17 17 16 16 16 17 17 17 17 17 17 17 16 15
20 20 20 21 21 21 21 20 20 21 22 21 21 21 21 21 21 23 24 24 24 23 24 24 24 25 25 25 23 21 22 22 21 21 20 20 19 19 19 19 19 19 19 18 18 18 19 19 18 18 17 17 17 17 17 17 17 17 17 17 17 17 17 17 17 18 18 18 18 17 17 17 16 16 16 16 16 16 17 17 16 16 16 16 16 16
20 19 20 20 19 19 20 19 19 21 21 21 21 21 21 21 22 23 23 24 24 23 24 23 23 25 24 23 23 22 22 22 22 21 20 20 20 19 19 19 19 19 19 18 18 18 18 18 17 17 17 17 17 17 17 17 17 17 17 17 17 17 17 17 17 18 18 18 18 17 17 17 17 16 16 16 16 16 17 16 16 16 16 16 16 16
19 19 20 19 18 19 20 19 19 20 20 20 20 20 21 21 21 22 23 25 24 22 24 24 23 25 24 23 22 21 22 22 22 21 21 20 20 20 19 19 19 19 19 18 18 18 17 17 17 16 16 16 16 17 17 17 17 17 17 17 17 17 17 17 17 17 17 18 17 17 17 17 17 16 16 16 16 16 16 16 16 16 16 16 16 16
19 20 20 19 19 20 21 20 19 20 20 20 20 20 21 22 22 22 23 24 24 22 23 24 23 23 25 24 23 21 22 23 22 21 21 20 20 20 19 19 19 19 19 18 18 17 17 16 16 16 16 16 16 16 16 16 16 16 17 17 17 17 16 16 16 16 17 17 17 17 16 16 16 16 16 16 16 16 16 16 15 16 16 16 16 16
19 20 20 20 19 20 20 20 20 20 20 20 21 21 22 22 22 22 22 23 23 22 22 23 21 21 23 24 22 20 21 22 21 21 21 20 21 20 20 19 19 19 18 18 17 17 16 16 16 16 16 16 16 16 16 16 16 16 16 16 17 17 16 16 16 16 16 17 17 17 17 16 15 16 16 16 16 16 16 16 16 16 16 16 16 15
19 20 20 20 20 19 20 20 20 20 20 20 21 22 22 22 22 22 23 22 21 21 21 22 21 21 22 23 21 19 19 20 20 20 20 21 21 21 20 19 18 18 18 17 17 17 16 15 16 16 15 16 16 16 16 16 16 16 16 17 17 17 16 16 16 16 16 16 17 17 17 16 16 15 16 16 16 16 16 16 16 16 16 16 16 15
20 20 20 20 20 20 19 19 20 20 20 20 22 23 22 22 22 23 23 22 21 22 22 22 22 21 21 22 20 18 19 19 18 18 18 19 20 20 19 19 18 17 17 17 16 16 16 15 15 15 16 16 16 16 16 16 16 16 16 17 17 17 17 16 16 15 15 16 16 16 16 16 16 16 16 16 16 16 16 16 16 16 16 16 16 16
21 21 20 20 20 19 20 20 20 20 21 22 24 23 23 23 23 24 24 22 21 21 21 21 22 21 21 20 18 18 20 19 17 17 17 17 19 19 19 18 18 17 17 16 16 16 15 15 15 16 16 15 16 16 16 16 16 16 16 16 17 17 17 16 16 15 16 17 16 15 15 15 16 16 16 16 15 15 15 16 16 16 16 16 16 16
21 21 21 21 20 20 21 21 21 21 21 23 24 23 23 23 23 23 23 22 21 21 21 21 21 21 20 19 17 17 19 17 16 17 16 16 17 18 18 17 17 16 16 16 16 16 15 15 16 16 16 16 16 16 16 16 16 16 17 17 17 17 17 16 16 17 18 18 17 15 15 15 15 16 16 15 15 15 15 16 15 15 16 16 15 16
21 22 21 21 21 22 22 21 21 22 22 23 23 23 22 22 22 22 21 21 21 20 21 21 21 21 20 18 17 17 17 16 16 17 16 16 16 16 16 16 15 15 15 15 16 15 15 15 16 16 16 16 16 16 16 16 16 16 17 17 17 17 16 16 17 18 19 18 17 17 15 14 15 15 15 15 15 15 16 16 15 15 15 15 16 16
21 21 22 22 23 22 22 21 21 22 22 23 23 23 22 21 21 21 21 21 20 20 21 21 20 20 20 18 17 16 16 16 16 16 16 16 16 16 16 15 15 15 15 15 16 16 15 16 16 16 17 17 17 17 16 16 17 16 16 17 17 16 15 15 18 20 19 17 18 18 17 15 15 15 15 15 15 15 16 16 15 15 15 15 16 16
20 21 21 23 23 23 22 21 20 21 21 22 22 22 21 20 20 20 20 20 20 20 20 20 20 20 18 17 16 16 16 16 16 16 16 16 15 15 15 15 15 15 15 15 16 16 16 15 14 15 15 16 16 16 16 16 17 17 17 17 16 15 14 15 17 19 17 17 19 19 18 16 16 15 15 15 15 15 15 15 15 15 15 15 16 16
20 21 21 22 23 23 23 21 21 21 21 22 22 21 21 20 20 20 19 18 20 20 19 19 20 19 17 16 16 16 15 15 15 15 15 15 15 15 15 14 14 14 14 14 14 14 14 14 13 13 14 14 14 15 14 15 16 17 17 17 16 15 15 16 18 18 17 18 20 19 18 17 16 15 15 15 15 15 15 15 15 15 15 16 16 16
19 20 21 22 23 23 23 22 23 22 21 21 22 22 21 20 20 20 19 20 20 20 20 20 19 18 17 17 16 15 15 15 16 16 15 15 15 15 14 14 14 14 14 14 14 14 14 13 13 14 14 14 14 14 14 14 15 15 16 16 16 16 16 17 19 18 17 19 20 18 17 16 16 16 15 15 15 15 15 15 15 15 16 16 17 17
19 20 22 23 22 23 23 23 23 23 22 20 20 21 21 21 21 20 19 19 20 20 20 19 18 16 16 16 15 15 15 15 16 16 15 15 14 15 15 14 14 14 14 14 14 14 14 14 14 14 14 14 13 14 14 14 14 14 15 16 16 17 18 19 20 19 17 19 19 18 17 16 16 16 15 15 15 15 15 15 15 16 17 17 17 17
19 20 22 22 22 23 24 23 23 23 22 20 20 21 21 21 22 20 18 17 19 20 19 17 16 16 15 16 15 15 15 15 15 15 15 15 15 15 15 15 15 15 14 14 14 14 14 14 14 14 14 14 14 14 14 14 14 14 14 15 15 16 17 18 19 19 18 18 18 18 17 17 16 15 15 15 15 15 15 15 16 16 17 17 17 17
20 21 21 22 23 23 23 24 24 23 23 22 21 22 21 20 21 21 20 19 19 20 18 16 17 17 16 16 16 15 16 15 15 15 15 15 15 15 15 15 15 14 14 14 14 14 14 14 14 14 14 14 14 14 14 14 14 14 14 14 14 14 15 16 17 18 17 17 17 17 17 17 16 16 16 15 15 15 15 15 16 16 17 17 17 17
19 21 21 22 23 23 23 23 23 22 23 23 23 23 21 20 21 20 20 20 19 19 18 17 16 16 16 16 16 16 16 15 15 15 15 15 15 15 15 14 14 14 14 14 14 14 14 14 14 14 14 14 14 14 14 14 14 15 14 14 14 14 14 14 14 15 15 15 16 16 17 17 16 16 15 15 15 15 15 16 16 17 17 17 17 17
19 20 21 21 21 22 23 22 22 22 22 23 22 22 21 21 21 20 20 20 20 19 18 17 17 17 16 16 16 16 15 15 15 15 15 15 15 15 14 14 14 14 13 13 13 13 13 13 13 13 13 13 13 13 13 14 14 14 15 15 15 14 14 14 14 14 14 14 15 15 16 16 15 15 15 15 16 15 16 16 16 17 17 17 17 17
20 19 20 21 21 21 22 22 22 22 22 22 22 21 21 21 20 20 20 19 20 20 19 18 17 17 16 15 16 16 15 15 15 15 15 15 14 14 14 13 13 13 12 12 12 12 12 13 12 13 13 12 12 13 13 14 14 14 14 15 15 14 14 14 13 13 14 14 14 15 15 15 15 15 15 15 16 15 16 16 16 17 17 17 17 17
20 19 20 21 21 20 20 20 21 23 22 22 22 21 21 21 20 20 20 19 20 20 18 18 19 17 15 15 16 16 15 15 15 15 14 14 14 13 13 13 12 12 12 12 11 12 12 12 12 12 12 12 12 12 12 13 13 13 13 14 14 14 14 14 14 13 14 14 14 14 14 14 14 15 15 15 15 15 16 16 16 17 17 17 17 17
20 20 20 20 20 19 19 19 20 21 21 21 20 19 20 21 21 21 20 19 19 18 17 18 19 16 15 15 16 15 15 15 15 14 14 13 13 12 12 12 12 11 11 11 11 11 11 11 11 11 11 11 11 11 11 12 12 12 12 13 13 13 14 14 14 14 14 14 14 14 14 14 14 15 15 15 15 15 16 16 16 17 17 17 17 17
19 20 20 20 20 19 20 21 20 20 20 20 19 17 18 20 20 21 20 20 20 19 18 19 19 16 15 15 15 15 15 14 14 13 13 12 12 12 12 11 11 11 11 11 11 11 11 10 11 11 11 11 11 11 11 11 11 12 12 12 12 13 13 13 14 14 14 14 14 14 14 14 14 14 15 15 15 15 16 16 16 17 17 17 17 17
19 19 19 20 19 18 20 21 20 20 19 19 18 16 17 17 19 20 19 20 20 17 17 20 19 15 15 15 14 14 14 14 13 13 12 12 11 11 11 11 10 10 10 10 11 11 10 10 11 11 11 11 11 11 11 11 10 11 11 11 12 12 13 13 13 13 14 14 14 14 14 14 14 14 14 14 14 14 15 15 16 16 17 17 17 17
18 17 18 20 19 18 19 19 19 19 18 17 16 16 16 16 18 20 19 21 20 16 16 19 18 15 15 14 14 14 13 13 12 12 11 11 11 10 10 10 10 9 9 10 10 10 10 10 11 11 10 11 10 10 10 10 10 10 10 11 11 12 13 13 13 13 14 15 15 14 15 15 14 14 14 14 14 14 14 14 15 15 16 17 17 17
18 15 16 19 19 19 19 18 17 17 18 18 17 16 16 15 17 19 20 21 19 16 16 17 16 15 15 14 14 13 13 12 12 11 11 10 10 10 9 9 9 9 9 9 9 9 9 10 10 10 10 10 10 10 10 10 10 10 10 10 11 11 12 13 13 13 14 15 15 15 15 15 14 14 15 15 15 15 15 15 15 15 15 15 17 17
18 16 15 16 16 16 16 16 15 16 17 17 16 16 15 15 17 19 20 19 18 18 17 15 15 16 15 14 14 13 12 12 11 10 10 10 9 9 9 9 9 8 8 9 9 9 9 9 10 10 10 10 10 10 10 10 10 10 10 10 10 11 12 13 13 13 13 14 15 15 15 14 14 14 14 15 15 15 15 15 15 15 15 15 17 18
18 16 15 14 14 14 14 14 14 15 14 13 13 14 14 14 17 18 17 15 17 19 18 16 15 15 14 13 12 11 11 11 10 10 9 9 9 9 8 8 8 8 8 8 8 8 9 9 9 9 10 9 10 10 9 10 10 10 10 10 10 11 11 12 12 13 13 14 14 15 15 14 14 14 14 15 15 14 15 14 15 16 16 16 17 18
16 15 14 14 14 14 13 14 14 14 14 13 12 12 12 13 13 14 14 14 15 18 17 15 14 13 11 11 10 10 10 9 9 9 8 8 8 8 8 7 7 7 7 7 7 7 8 9 9 9 9 9 9 9 9 9 9 9 9 10 10 10 10 11 12 12 13 13 14 14 14 14 14 14 14 15 15 14 14 15 15 16 16 16 17 18
16 15 14 15 15 13 13 13 13 13 14 13 12 12 12 13 12 12 13 14 14 15 14 13 13 11 10 9 9 9 9 8 8 8 7 7 7 7 7 7 6 6 6 7 7 7 7 8 9 9 9 9 9 9 9 9 9 9 9 9 10 10 10 11 11 12 12 12 13 13 14 14 14 14 14 15 15 14 14 15 15 15 15 16 17 17
17 15 14 15 15 13 12 13 13 13 14 14 13 11 12 13 13 12 12 13 13 13 13 13 12 11 9 8 8 8 8 8 8 7 7 7 7 7 7 6 6 6 6 6 6 6 7 7 8 8 8 9 9 9 9 9 9 9 9 9 9 9 10 10 11 11 12 12 12 12 13 14 14 14 14 15 15 14 14 15 15 15 15 16 17 17
16 15 14 15 15 13 12 13 14 15 16 15 13 11 11 12 12 12 12 12 13 13 13 13 12 10 8 8 8 7 7 7 7 6 6 6 6 6 6 6 5 5 5 6 6 6 6 6 7 7 8 8 8 8 9 9 9 9 9 9 9 9 10 10 10 11 11 11 12 12 12 13 14 14 14 14 14 14 14 14 14 14 15 16 16 16
15 16 15 15 15 13 12 13 14 15 16 14 11 11 11 12 11 11 11 11 11 11 11 11 10 8 8 8 7 7 6 6 6 6 6 6 5 5 5 5 5 5 5 5 6 6 6 6 6 7 7 8 8 8 9 9 9 9 8 9 9 10 10 9 10 10 11 11 11 11 11 12 12 13 13 13 13 13 13 13 13 14 15 15 15 16
14 16 15 14 14 12 12 14 15 15 13 11 11 11 11 11 11 10 10 10 9 9 9 9 8 8 7 7 6 6 6 5 5 5 5 5 5 5 5 5 5 5 5 5 5 6 6 6 6 6 7 7 8 8 9 8 8 8 8 9 9 9 9 9 10 10 10 10 11 11 11 11 11 12 12 13 13 13 13 13 13 13 13 14 15 15
15 15 14 13 13 12 12 14 14 13 11 10 11 11 11 11 11 11 11 10 9 9 9 8 7 7 6 6 5 5 5 5 5 5 5 5 5 5 5 5 5 5 5 5 5 5 5 6 6 6 7 8 8 8 8 8 8 8 8 8 8 8 9 9 9 9 10 10 10 11 11 11 11 11 12 12 13 13 12 12 12 12 11 11 13 13
16 16 15 13 12 12 12 12 12 11 11 11 10 9 9 10 10 10 11 10 9 9 8 7 7 6 6 5 5 5 5 6 5 4 5 5 5 5 5 5 5 4 4 5 5 5 6 6 7 7 7 8 8 8 8 8 8 8 8 8 8 8 8 8 8 9 9 10 10 10 11 11 11 11 11 11 12 12 11 11 11 11 10 10 10 11
15 16 16 14 12 12 12 11 11 12 12 11 10 9 8 8 8 9 10 10 9 8 8 7 6 6 6 5 5 5 6 7 6 4 4 5 5 5 4 4 4 4 4 5 5 5 6 6 7 7 8 8 8 8 8 8 8 9 8 8 8 8 8 8 8 8 8 9 10 10 11 11 11 11 11 11 10 10 11 11 10 11 11 10 10 10
14 14 15 14 12 12 13 12 12 12 12 10 9 8 8 8 8 9 11 11 9 8 8 7 7 6 6 6 6 6 8 9 6 4 4 4 4 4 4 4 4 4 4 4 5 5 6 7 7 7 7 7 8 8 8 8 8 8 8 8 8 8 8 8 8 8 8 8 9 10 11 11 11 11 11 11 10 10 11 11 11 11 11 11 11 10
15 14 14 14 13 12 12 12 11 11 10 9 8 8 8 8 8 11 13 12 9 8 8 8 7 7 6 6 6 6 8 8 6 4 4 4 4 4 4 4 4 4 4 5 5 5 6 7 7 7 7 7 7 8 8 8 9 8 8 8 8 8 7 8 8 8 8 9 9 10 10 10 11 11 11 11 11 11 10 11 12 12 11 11 11 11
13 13 13 13 12 12 12 11 11 10 9 8 8 8 7 8 10 12 12 10 8 8 9 8 7 7 7 7 6 6 5 5 5 4 4 4 4 4 4 4 4 4 5 5 5 5 6 7 7 7 6 7 7 8 8 8 9 8 8 8 8 8 7 8 9 9 10 9 9 9 9 10 10 10 10 10 10 10 10 10 10 11 12 11 10 10
12 12 11 12 11 10 10 10 11 11 8 7 7 7 8 10 12 11 9 8 7 8 8 7 7 7 6 5 5 4 4 4 4 4 4 4 4 4 4 5 5 5 5 5 6 6 6 6 6 7 7 7 8 8 8 8 8 8 8 8 8 8 9 9 9 10 10 10 10 9 9 9 9 9 9 9 9 10 9 8 8 9 10 10 9 9
10 11 10 9 9 9 10 10 11 11 8 5 7 8 9 10 10 8 6 6 7 6 6 6 6 5 5 4 3 3 3 3 4 4 4 4 4 4 4 5 5 5 6 6 6 6 6 6 6 7 7 8 8 8 9 8 8 8 8 8 8 8 9 9 9 10 10 10 9 9 9 9 9 9 8 8 8 8 8 7 7 7 8 9 9 8
8 9 9 7 7 9 11 10 9 8 6 5 7 8 8 8 7 6 6 6 5 5 5 5 4 4 4 4 3 3 4 3 4 4 4 4 4 4 5 5 5 5 6 6 6 7 7 7 7 7 7 7 8 8 9 9 9 9 8 8 8 9 9 9 9 10 9 9 8 8 8 8 8 8 8 8 8 7 7 7 6 6 6 7 7 7
7 7 8 7 6 7 8 8 6 6 5 6 6 7 6 6 6 6 6 5 5 5 5 4 4 4 4 4 3 4 4 4 4 4 4 4 4 4 5 5 5 6 6 6 6 6 7 7 7 7 7 7 8 8 8 9 9 8 8 8 9 9 9 9 9 9 9 9 8 7 8 8 8 8 8 8 8 7 7 7 7 6 6 6 6 6
6 6 7 6 6 6 6 6 5 6 6 6 6 6 5 5 5 5 5 4 4 4 4 4 4 4 4 4 4 3 3 4 4 4 4 4 4 5 5 5 6 6 6 6 6 7 7 7 7 7 7 7 8 8 8 8 8 8 8 9 9 9 9 9 9 9 8 8 8 8 8 8 8 8 8 8 8 7 7 7 7 6 6 6 6 6
7 7 7 6 6 7 6 6 5 6 6 5 5 5 5 5 5 5 4 4 4 4 4 4 4 4 4 4 3 3 3 4 4 4 4 4 4 5 5 5 6 6 6 6 6 7 7 7 7 6 6 6 7 8 8 8 8 8 8 9 9 9 9 9 9 8 8 8 8 8 8 8 8 8 8 8 8 7 7 7 7 6 6 6 6 6
7 7 6 6 6 6 6 5 5 5 5 5 5 5 4 4 4 4 4 4 4 4 4 4 4 4 4 3 3 3 3 4 4 4 4 4 4 5 5 5 5 6 6 6 6 6 7 6 6 6 6 6 7 7 8 8 8 8 9 9 9 9 9 8 8 8 8 8 8 8 8 8 8 8 7 7 8 7 7 7 7 7 6 6 6 6
8 7 7 6 5 5 5 5 5 6 5 5 5 4 4 4 4 4 4 4 4 4 4 4 4 4 4 4 4 4 4 4 4 4 4 4 5 5 5 5 5 6 6 6 6 6 6 6 6 6 6 6 7 7 8 8 8 8 8 8 8 8 8 8 8 8 8 8 8 8 8 8 7 7 7 7 7 6 6 6 6 6 6 5 6 6
7 6 6 6 6 6 6 6 6 6 6 5 4 4 4 4 4 4 4 4 4 4 4 4 4 4 4 4 4 4 4 4 4 4 5 5 5 5 5 6 6 6 6 6 6 6 7 7 6 6 6 6 7 7 7 7 8 8 8 8 8 8 8 8 8 8 7 7 7 7 7 7 7 7 6 6 6 5 5 5 5 6 5 5 5 5
7 6 6 7 7 7 6 6 6 6 5 4 4 5 4 4 4 4 4 4 4 4 5 4 4 4 4 4 4 4 4 4 4 4 5 5 5 6 6 6 6 7 7 7 7 7 7 7 7 7 7 7 7 7 7 7 7 8 8 8 8 8 8 8 8 7 7 7 7 7 7 7 7 6 6 6 6 5 5 5 4 4 4 4 4 4
Height
754 762 767 766 764 763 763 764 766 766 766 769 772 774 775 777 774 765 760 753 750 758 757 756 758 753 754 756 756 758 759 762 764 766 768 767 769 769 769 769 768 768 766 763 762 763 765 766 768 770 770 771 773 774 776 777 778 779 781 781 782 783 784 786 787 789 791 792 793 794 794 794 794 796 798 799 800 801 802 803 804 805 807 809 812 816
754 764 766 761 760 760 762 766 767 766 767 769 772 775 776 778 773 762 759 754 751 759 757 755 759 756 755 757 757 759 760 761 762 764 767 768 770 770 769 769 769 767 765 763 763 764 766 767 769 771 773 774 776 778 779 779 779 780 781 781 781 782 783 784 786 787 789 790 791 791 792 793 794 795 797 799 800 801 803 803 804 806 809 810 813 815
761 765 762 759 762 763 764 768 769 767 768 771 774 778 778 776 771 763 758 753 752 758 757 758 761 756 757 759 758 759 760 758 757 758 760 763 767 769 769 769 768 767 765 764 764 765 766 768 772 776 779 780 782 783 784 784 784 784 783 783 782 783 784 784 786 787 788 789 790 791 792 792 793 795 797 799 800 801 801 802 803 805 808 810 812 812
767 763 757 759 763 763 764 767 770 770 770 773 775 779 779 774 774 771 760 753 754 757 756 757 760 757 758 762 760 761 761 759 758 759 760 761 763 764 763 763 763 764 764 763 763 766 769 774 777 780 782 783 784 784 785 786 787 788 787 787 786 786 786 786 787 788 789 790 790 791 791 792 794 795 797 799 800 800 800 801 803 804 806 809 810 810
764 756 753 758 762 761 762 766 770 771 772 774 773 776 776 770 772 771 763 756 754 757 756 757 765 764 759 763 765 765 763 760 760 762 763 764 763 763 763 762 763 762 762 763 766 770 775 778 779 780 780 781 782 782 783 784 786 787 788 789 789 790 789 789 790 790 791 790 790 791 792 793 794 795 797 798 799 800 800 801 802 803 805 806 807 809
759 753 752 758 762 762 763 766 767 769 772 774 769 769 769 766 767 769 766 762 761 764 761 761 777 779 764 763 772 775 770 765 764 765 767 766 764 765 766 767 767 767 767 768 771 773 776 778 778 778 779 780 781 781 781 781 782 784 785 786 788 790 792 793 793 793 794 793 792 791 791 792 793 795 797 798 799 800 800 799 800 802 803 805 806 808
754 750 751 756 760 763 765 767 765 766 773 776 765 759 761 763 766 767 764 764 768 772 767 764 777 782 770 766 775 781 780 774 771 771 771 769 766 766 768 770 771 772 772 772 773 774 777 779 779 779 781 783 783 782 781 781 781 781 782 782 783 787 790 793 796 797 796 796 795 792 791 792 793 794 794 795 796 798 798 799 800 801 803 805 805 807
749 750 753 755 758 763 766 767 763 762 771 772 757 752 760 762 765 764 760 764 769 768 767 765 768 776 778 775 778 783 783 782 782 780 777 772 769 769 771 773 774 775 775 774 775 776 778 779 779 780 782 784 784 784 784 783 782 782 782 782 783 785 787 790 795 799 800 798 796 794 794 793 793 792 792 792 794 795 797 798 799 800 802 803 804 805
744 749 753 754 759 763 762 759 757 759 765 760 748 751 757 757 760 759 758 767 771 770 772 771 768 778 787 784 784 784 781 786 792 788 783 777 771 771 772 773 774 775 776 776 777 778 778 779 780 781 783 784 786 786 785 785 784 784 784 785 786 787 788 789 791 795 799 798 796 796 796 794 792 791 791 792 794 795 796 797 798 800 801 802 803 804
742 743 744 749 756 756 751 750 751 755 758 749 746 753 756 757 761 760 762 767 771 777 780 776 772 782 795 796 795 791 787 793 796 790 786 781 776 774 775 776 776 776 777 777 778 778 779 780 780 782 783 784 785 786 786 785 785 784 784 784 786 788 789 790 790 790 792 794 795 795 795 795 793 792 791 792 794 795 797 798 798 800 801 801 802 803
740 738 739 743 746 743 741 746 747 747 748 744 747 755 759 763 763 764 770 768 775 786 780 774 775 780 795 805 803 800 797 797 796 792 788 784 781 780 779 779 779 779 779 779 779 779 780 780 780 781 782 783 784 785 785 785 784 784 783 783 784 786 787 788 789 787 786 789 791 791 792 794 793 792 792 793 794 795 797 798 798 800 800 800 802 803
742 741 741 736 734 735 738 745 747 743 744 746 751 756 762 770 769 772 777 775 787 794 779 775 780 782 797 808 805 802 799 796 794 793 791 788 786 785 783 783 782 782 781 780 780 780 780 780 780 780 780 781 782 783 784 784 784 784 784 784 784 786 788 788 789 786 783 786 788 788 789 790 790 791 792 793 793 794 795 797 797 798 799 799 801 802
746 743 741 734 730 732 738 749 751 749 749 752 755 759 769 780 782 785 790 789 792 790 782 783 784 789 805 810 805 804 799 796 796 795 793 791 790 788 787 786 785 784 783 782 782 782 782 782 781 781 781 781 782 782 784 784 782 782 783 783 785 786 787 788 787 784 782 784 784 783 784 786 787 789 791 792 792 792 793 794 795 796 797 798 799 801
751 745 740 737 732 728 735 747 753 755 755 754 754 757 770 784 792 798 805 804 796 787 786 786 784 797 812 808 805 805 800 797 797 796 795 793 792 791 790 789 788 787 786 785 785 784 785 784 783 783 783 782 783 783 784 784 782 782 782 783 784 784 784 783 780 777 777 778 778 778 780 783 785 787 789 791 792 792 792 792 793 794 795 796 798 800
760 756 741 736 734 727 730 736 738 743 749 752 750 751 760 771 781 791 796 794 790 786 786 784 788 803 809 806 805 804 801 799 796 797 797 794 794 792 792 792 791 790 789 788 788 787 787 786 785 785 784 783 784 784 784 783 782 782 782 782 781 780 779 777 774 773 772 771 772 775 777 780 782 784 787 789 790 791 791 791 792 792 793 795 798 800
760 756 735 727 729 725 727 729 727 735 748 755 753 752 757 756 761 779 789 786 783 785 790 794 801 808 806 804 804 802 802 800 796 799 799 797 797 794 794 795 793 793 792 790 790 789 787 787 786 786 785 784 785 784 783 782 782 783 782 782 779 776 775 773 770 770 770 769 769 772 774 776 779 781 784 786 788 790 790 791 792 793 793 795 797 800
756 751 732 727 727 723 724 724 724 730 742 754 755 752 753 749 750 771 790 792 785 783 795 806 808 810 809 806 804 802 803 801 799 802 802 800 798 797 796 796 795 794 793 791 790 789 788 787 787 787 786 786 785 784 784 783 783 783 782 782 780 777 774 771 770 769 769 769 769 770 771 773 775 778 781 784 787 788 789 791 792 793 794 795 797 800
749 746 734 729 728 723 721 722 723 725 731 747 753 746 748 753 753 762 778 790 789 787 799 808 807 808 811 809 806 804 804 804 804 804 803 802 800 798 798 796 795 794 793 792 791 789 789 788 788 788 787 786 785 785 784 784 783 783 783 782 781 779 776 773 771 770 769 768 768 768 769 771 773 775 779 783 786 787 788 789 791 792 794 795 797 799
745 748 738 730 729 725 721 725 732 730 726 733 737 736 745 759 764 766 774 784 791 795 801 808 810 809 808 809 806 804 805 806 806 805 804 804 802 800 799 797 796 795 794 793 792 792 792 791 791 790 788 788 787 786 785 784 784 783 783 782 781 780 778 776 775 774 772 770 770 769 769 771 772 774 778 782 785 787 788 789 790 792 794 795 797 799
742 751 745 733 730 727 725 731 740 740 733 730 735 739 745 753 759 764 770 775 782 794 802 807 811 808 805 806 803 802 806 806 806 807 806 805 804 802 801 800 800 799 798 797 796 796 795 794 794 792 791 790 788 787 786 784 783 782 782 782 781 780 778 778 778 776 775 774 773 773 772 773 773 775 778 781 784 786 787 788 790 791 793 795 797 799
740 752 749 737 731 734 737 736 736 737 737 737 742 747 749 751 755 760 768 773 773 782 797 804 807 807 804 802 800 801 805 806 806 807 806 806 805 804 804 804 803 802 802 801 800 799 798 797 796 794 793 792 789 788 785 783 782 782 782 781 780 780 779 778 779 778 776 775 775 776 775 775 775 776 779 781 783 785 787 788 790 791 793 795 797 799
740 749 749 743 739 744 745 738 731 730 733 738 742 747 750 751 756 763 774 777 769 775 790 794 796 805 806 800 798 800 803 804 805 806 807 808 807 807 807 806 806 806 805 804 803 802 800 799 797 796 794 793 790 788 785 783 783 783 782 782 781 780 779 778 778 777 776 775 776 776 776 776 777 778 779 781 783 785 786 788 790 791 792 794 795 798
736 743 747 747 747 750 745 738 735 733 733 738 744 751 751 748 751 759 770 775 771 780 790 787 790 804 805 799 797 799 801 803 805 806 808 811 811 810 811 809 809 808 807 807 805 804 803 801 799 798 795 794 791 789 788 786 785 785 784 783 782 781 780 779 778 777 776 776 776 776 777 777 778 779 781 782 782 784 786 787 789 791 792 794 794 796
735 743 748 749 750 749 740 734 735 734 735 742 749 756 756 752 751 752 759 765 768 780 786 782 793 805 802 798 799 799 802 804 806 808 810 813 814 813 813 813 812 811 809 808 807 806 805 802 800 799 798 796 793 791 791 789 787 787 786 785 784 783 782 781 780 778 777 777 777 778 778 778 780 782 782 783 783 784 785 787 789 791 792 794 795 796
737 747 750 752 760 761 751 746 744 741 744 752 758 761 760 760 756 753 759 762 768 786 786 777 793 806 801 799 801 802 805 807 809 812 812 815 816 816 816 816 814 813 812 810 809 808 806 804 803 802 801 800 796 794 792 791 790 788 787 787 786 784 783 782 781 780 778 777 778 779 780 780 781 783 784 785 785 786 787 788 790 791 793 794 795 797
741 754 751 750 764 770 764 760 757 754 755 760 763 763 762 763 757 754 760 760 768 790 790 779 793 805 801 801 804 805 808 811 814 816 816 818 819 819 819 819 817 816 814 813 812 811 809 807 806 805 804 802 800 797 794 792 792 790 789 789 787 785 784 782 783 782 779 777 777 779 780 780 780 781 783 784 786 788 790 791 792 793 794 795 795 798
745 760 759 750 753 757 758 759 759 758 758 761 765 766 767 768 762 757 758 759 768 787 791 788 794 800 800 803 806 807 810 813 817 819 819 821 822 822 822 821 820 819 817 815 814 814 812 810 808 807 806 804 802 800 797 795 794 792 791 790 788 786 784 783 782 782 779 777 777 777 778 780 781 781 782 783 785 787 789 791 794 795 797 798 797 799
743 758 763 760 759 760 762 764 764 761 762 766 770 771 771 770 763 758 759 762 767 776 787 794 793 794 801 804 805 810 812 814 819 821 822 824 824 825 825 824 823 821 819 818 817 816 814 812 811 810 807 806 804 802 799 798 796 795 793 791 789 787 785 784 782 781 779 777 776 776 777 779 781 782 782 783 784 785 787 790 793 795 798 800 799 800
746 759 764 765 769 770 769 769 768 767 772 779 779 778 778 774 767 765 771 777 770 763 775 790 791 795 804 807 809 814 815 816 820 823 824 826 826 827 828 827 826 825 823 822 821 819 817 815 814 812 810 809 806 804 802 800 798 796 794 792 790 788 786 784 782 781 779 778 777 776 777 779 781 781 782 784 785 786 788 790 793 795 798 801 801 802
749 764 768 766 770 775 775 774 772 771 775 783 786 786 785 783 780 778 781 783 776 769 775 787 796 806 813 815 817 820 820 821 823 825 827 828 829 830 830 830 830 828 827 826 824 821 819 817 816 814 812 811 809 807 805 803 801 799 796 794 792 790 788 786 784 782 780 779 779 778 778 779 780 780 782 782 784 787 789 791 793 796 798 801 802 802
748 764 769 765 770 779 781 780 778 776 776 781 788 791 788 785 786 786 785 784 782 784 790 793 802 815 821 821 823 824 824 823 825 828 831 831 832 833 833 833 833 831 830 828 826 824 821 819 817 816 815 813 812 810 808 805 803 800 799 797 795 793 791 789 786 784 782 781 780 779 779 779 778 779 781 783 785 788 790 791 794 796 798 800 801 802
747 764 771 765 770 782 785 783 782 779 777 780 787 794 792 787 786 789 790 789 787 791 797 799 804 815 823 825 826 828 828 828 829 832 833 833 834 835 835 836 835 834 832 830 828 826 823 821 820 819 818 816 814 812 810 807 804 802 800 799 797 796 794 791 789 786 785 783 782 781 780 779 779 780 782 783 786 789 791 792 794 796 798 798 799 801
751 760 768 765 770 785 787 782 780 776 774 780 791 799 798 793 791 792 794 794 790 789 794 797 804 816 824 825 828 831 834 835 835 834 834 835 836 837 837 838 837 836 834 832 830 828 826 824 823 821 820 818 816 814 812 809 807 804 803 801 800 798 795 793 791 789 787 786 784 783 782 781 781 781 783 784 787 790 792 793 795 796 797 798 799 801
755 756 763 766 772 785 789 783 779 777 779 789 798 800 798 796 796 797 799 801 800 800 802 805 811 820 825 826 829 833 837 840 839 838 837 837 837 839 839 839 838 837 835 833 832 830 828 826 824 823 821 819 818 816 814 812 809 808 806 804 801 799 797 796 793 791 790 789 787 786 785 783 783 783 784 786 788 791 792 793 795 796 796 798 799 801
758 757 765 771 776 787 790 783 779 782 790 798 801 798 797 798 800 802 806 809 809 809 812 815 820 824 827 830 833 835 838 841 841 840 839 839 838 839 840 840 839 838 836 835 833 831 829 827 826 824 823 821 820 817 815 814 812 810 809 806 804 802 800 798 796 794 793 792 790 789 788 786 786 786 787 788 788 791 793 794 795 796 797 798 799 802
756 758 766 775 782 789 792 786 783 792 802 804 801 800 799 799 800 801 806 812 814 813 814 819 825 829 831 833 835 837 839 841 841 841 842 840 840 840 840 841 840 839 838 836 834 832 831 829 827 826 825 823 821 819 818 816 814 813 811 809 807 805 803 801 799 797 796 795 794 793 791 790 789 789 790 790 790 792 794 795 795 797 799 800 800 802
753 757 765 776 784 788 792 795 796 801 803 802 803 807 807 807 807 805 807 814 817 816 817 822 828 831 833 835 837 838 838 838 841 844 844 842 842 841 841 841 841 840 839 838 836 835 832 831 829 828 826 825 823 822 820 819 817 815 813 811 810 809 807 804 803 802 800 798 797 796 795 794 793 793 793 793 793 794 796 798 797 798 801 803 802 804
754 756 759 770 785 789 790 798 803 799 796 799 806 811 811 811 812 810 809 814 818 819 819 823 827 831 834 835 837 838 835 833 841 848 847 845 844 843 843 843 841 841 840 839 838 836 833 832 830 829 828 827 826 825 823 822 820 818 816 814 813 811 810 808 807 806 804 802 801 800 799 798 797 797 797 797 797 797 797 799 800 801 804 805 805 806
759 763 762 769 784 787 783 789 795 793 794 802 809 811 811 811 812 808 805 810 818 820 820 822 826 830 833 833 835 836 830 830 842 850 848 846 847 845 845 845 843 842 841 840 839 837 835 834 832 830 830 829 828 827 826 824 823 820 818 817 816 814 813 812 811 810 808 806 805 803 802 802 801 801 801 801 802 801 799 801 803 804 806 808 808 810
761 764 767 771 780 784 785 792 797 796 801 809 811 810 810 810 810 804 798 804 815 818 819 822 825 828 831 832 834 834 830 830 842 849 848 847 848 847 847 846 845 844 843 841 840 839 837 835 833 832 832 831 831 830 828 827 826 823 822 821 819 817 817 816 816 814 812 810 808 807 806 805 805 805 804 804 805 805 804 804 805 807 808 810 812 813
772 774 776 779 783 787 789 795 799 800 806 812 810 810 811 808 804 800 798 805 815 817 818 822 824 827 830 831 833 837 838 837 842 846 848 849 849 849 849 848 847 845 844 843 842 841 839 838 836 835 835 835 834 832 831 830 828 827 826 824 822 822 821 820 819 817 815 814 812 811 810 809 808 808 808 808 808 807 807 807 808 808 810 812 815 816
779 781 783 784 791 797 799 799 797 798 809 815 813 811 810 804 799 801 807 814 817 817 819 823 825 828 832 834 837 841 843 843 844 847 849 850 850 850 850 849 848 847 846 844 843 843 842 840 838 837 837 837 836 834 833 833 831 830 829 827 826 826 825 824 822 820 819 817 816 814 814 813 812 811 811 811 810 809 810 811 811 810 811 814 817 818
788 788 792 799 804 804 803 801 794 794 809 818 814 809 807 804 803 810 816 819 819 820 823 826 829 831 833 837 841 843 844 846 847 849 850 851 851 851 851 851 850 849 847 846 845 844 843 842 841 840 840 840 838 836 836 835 834 832 831 830 830 829 828 827 825 823 822 820 819 818 817 816 816 814 814 814 813 812 813 814 814 813 814 816 818 819
799 796 799 810 812 801 794 798 801 805 816 820 814 810 810 810 811 814 817 820 823 825 826 829 833 834 834 838 842 844 846 848 849 850 851 852 852 852 852 852 852 851 850 849 848 847 845 844 844 843 842 841 839 839 838 837 836 835 834 834 833 832 830 829 828 826 825 823 822 822 821 820 819 818 818 818 817 816 817 818 818 818 818 819 820 821
804 802 800 809 817 811 805 810 816 818 818 817 815 815 815 815 816 816 817 821 826 827 828 830 834 836 836 838 842 845 848 849 851 852 852 852 854 854 853 854 853 852 852 851 850 849 848 846 846 845 844 843 842 841 841 840 838 837 836 836 836 834 833 832 831 829 828 827 826 825 824 824 823 822 822 822 821 821 821 822 822 822 823 824 824 824
807 807 804 809 817 816 815 819 820 817 816 816 817 818 818 818 820 820 820 824 827 828 830 832 834 838 839 840 842 846 849 851 852 853 854 854 855 855 854 855 854 853 853 853 851 850 849 848 848 847 846 846 845 844 843 842 840 839 839 839 838 837 836 835 833 832 832 831 830 829 828 827 827 826 826 826 825 825 826 826 826 827 828 829 829 830
806 804 807 811 814 813 817 822 822 818 819 820 819 820 821 822 823 823 824 827 829 831 833 834 836 839 841 842 844 847 850 852 853 854 855 855 856 856 856 856 856 856 855 854 853 852 851 850 850 849 848 848 847 846 845 844 843 842 841 841 840 839 839 838 837 836 836 835 834 834 833 832 831 830 830 830 830 830 830 831 831 831 832 833 834 834
804 804 809 814 816 817 820 824 823 821 821 821 821 823 825 825 827 828 828 829 831 833 836 838 839 841 843 845 847 848 851 853 854 855 856 856 857 857 858 857 858 858 857 856 855 854 853 853 852 852 851 850 850 849 848 847 846 845 844 843 842 842 841 841 840 840 840 840 839 838 837 836 836 835 835 834 834 834 835 835 835 835 836 837 838 838
801 805 810 815 820 822 824 825 823 822 824 826 825 826 827 828 829 831 832 834 835 836 838 841 842 843 845 847 848 850 852 854 855 856 856 857 857 858 858 858 859 858 857 857 856 856 855 855 855 854 853 853 852 851 850 849 848 847 846 845 844 844 844 844 844 843 843 843 843 842 842 841 840 840 840 839 838 838 839 840 840 839 840 840 841 841
805 809 812 813 816 819 820 820 818 819 824 829 829 829 830 830 830 832 835 838 839 839 840 842 845 846 847 848 850 851 853 855 856 856 857 857 858 858 858 858 858 858 858 858 858 858 857 857 856 856 856 855 855 854 853 852 850 849 848 847 846 846 846 846 846 846 846 847 846 846 846 845 845 845 844 843 843 843 843 844 844 844 843 844 844 844
805 809 810 808 810 813 815 817 818 820 826 831 830 831 833 832 832 834 837 840 841 842 843 844 846 848 850 851 852 852 853 855 856 857 857 858 858 858 858 858 858 858 858 859 859 859 859 858 858 858 857 857 856 856 855 854 852 851 850 849 848 847 847 847 848 848 848 849 849 849 849 849 849 849 848 848 848 848 847 847 848 848 847 847 847 847
Wind_Speed
4 4 2 5 6 6 7 6 7 4 3 3 2 2 2 3 4 6 5 6 3 3 7 8 9 11 6 4 3 7 8 8 7 7 7 6 5 5 6 7 7 7 6 8 14 16 19 20 19 18 18 19 20 20 20 20 21 21 22 23 25 25 27 27 26 26 27 27 26 25 25 26 25 22 20 20 22 22 22 22 22 24 24 24 24 27
3 5 5 7 8 7 6 5 6 3 2 1 1 2 4 2 4 6 5 7 2 5 5 3 8 10 4 2 2 5 9 10 11 10 9 7 5 4 6 7 7 5 5 7 9 12 17 17 15 14 14 15 16 15 17 18 20 22 22 23 25 25 26 27 27 28 27 28 29 27 25 25 23 22 20 19 21 21 21 21 22 21 21 22 24 26
2 4 7 7 6 4 3 5 7 3 2 2 1 1 2 3 4 6 5 6 2 4 4 2 7 8 2 1 2 6 8 9 10 12 12 11 9 7 8 8 7 7 6 6 6 10 14 12 8 6 4 4 5 5 8 12 16 19 20 22 24 25 25 26 27 28 26 27 27 23 21 22 22 23 22 21 21 21 22 22 21 19 19 22 24 24
2 5 7 6 6 4 2 3 8 3 1 3 3 3 3 4 1 3 5 6 5 1 2 5 5 4 4 4 1 2 4 3 3 4 6 9 10 10 11 11 11 11 10 10 8 7 6 4 6 6 6 4 3 3 5 7 12 16 16 19 22 23 24 25 27 27 26 25 23 19 17 17 18 19 19 20 20 22 22 21 20 18 20 24 25 22
5 6 4 6 7 6 4 3 7 4 2 2 4 5 3 5 4 5 5 6 5 4 3 6 3 4 4 3 2 4 6 4 1 3 4 5 4 3 6 7 8 8 8 8 5 3 4 8 9 6 4 6 7 7 9 9 12 14 15 17 19 20 21 23 25 25 25 24 21 17 13 11 13 13 13 16 18 19 20 21 20 17 18 22 22 21
7 5 5 6 5 6 6 4 5 7 3 3 4 7 8 7 6 5 4 4 5 5 3 6 4 4 5 2 2 4 7 6 2 3 2 3 2 2 5 5 4 2 2 3 4 4 5 7 7 5 6 8 8 8 11 14 14 15 16 18 19 20 19 18 20 23 24 23 21 19 15 13 12 9 9 13 15 16 18 20 19 16 16 18 19 19
4 4 6 6 6 6 6 5 4 7 5 2 5 9 10 7 4 4 1 3 3 1 2 5 6 2 5 5 5 5 5 7 7 6 4 3 4 3 3 2 0 3 4 5 5 4 4 6 5 4 4 5 6 6 9 14 17 18 18 18 19 21 21 18 15 16 20 21 20 21 20 16 12 10 10 14 15 16 17 17 16 16 15 15 17 17
4 6 6 6 6 5 5 4 5 8 7 4 6 6 8 7 6 5 3 4 2 2 3 4 5 2 2 4 8 6 4 7 10 9 8 6 5 1 3 3 4 4 4 4 5 5 4 5 4 3 4 4 4 4 7 11 15 18 19 18 16 17 21 22 15 10 10 16 21 22 19 16 16 16 16 16 15 16 17 16 16 17 16 15 16 17
4 7 7 7 5 4 5 5 7 9 5 7 6 6 6 7 7 5 5 4 0 2 3 7 3 4 3 5 8 6 5 7 9 8 10 9 4 2 6 5 5 5 5 5 4 4 4 4 3 2 3 4 4 2 3 6 11 14 17 16 12 10 15 19 19 12 9 16 23 21 17 16 17 18 18 16 13 14 16 16 16 16 16 15 16 17
3 6 8 7 5 5 7 6 9 11 6 7 5 5 4 3 4 4 5 4 3 4 1 7 1 4 3 5 7 6 5 5 6 6 9 10 7 7 7 6 6 5 5 5 4 4 4 4 3 1 2 4 5 2 1 2 6 11 15 16 14 10 12 16 18 18 18 20 22 22 19 15 16 16 17 15 13 13 14 14 14 13 15 16 17 18
3 1 4 5 5 7 8 6 9 13 10 3 3 5 4 5 4 4 3 4 4 2 5 7 2 5 0 4 4 4 4 4 4 6 8 9 11 10 8 7 6 5 4 4 4 4 3 3 1 1 3 5 6 5 3 1 3 8 13 15 15 12 12 14 16 19 22 22 23 26 23 19 19 19 17 15 13 14 14 13 11 11 14 16 17 17
5 1 2 4 6 6 4 4 6 10 7 3 3 4 3 2 4 4 4 4 4 2 6 6 2 6 3 2 2 3 4 6 6 7 8 9 10 10 8 8 6 5 4 4 4 3 4 2 2 3 6 8 10 10 8 6 5 6 10 12 14 11 15 15 14 17 22 22 21 26 24 22 23 22 19 16 14 15 15 13 10 9 12 14 15 16
3 3 4 4 4 6 5 2 2 3 3 4 4 5 4 1 2 1 2 1 2 3 3 4 2 4 2 2 2 3 5 8 8 7 7 8 9 9 8 7 6 5 4 4 4 4 4 4 6 7 8 10 11 12 10 8 9 8 10 12 11 9 15 15 15 18 21 20 19 24 25 23 22 21 20 18 16 16 16 14 13 12 13 14 15 16
3 5 4 2 3 4 7 5 2 3 4 6 5 5 5 3 3 1 2 0 2 3 3 4 2 2 1 2 1 3 6 7 8 7 7 8 9 8 8 7 6 6 5 5 5 5 5 6 10 12 14 15 16 18 15 8 9 10 11 12 10 10 14 17 19 21 22 20 21 24 25 23 22 21 21 19 18 17 17 16 16 16 16 16 16 16
2 4 3 4 3 3 7 7 6 7 5 4 4 6 6 4 4 3 3 3 3 2 2 3 1 2 3 3 2 3 5 6 8 6 6 7 8 7 8 8 8 7 6 5 5 6 7 9 12 13 14 16 17 19 18 10 7 8 10 12 12 15 19 21 22 24 25 24 24 25 25 23 22 21 21 21 20 19 19 18 17 18 18 17 16 15
4 4 7 5 3 4 7 5 5 8 5 2 2 6 3 5 5 3 3 5 5 2 1 2 2 1 2 3 3 4 5 7 9 6 6 8 7 7 8 7 7 6 5 5 5 6 7 10 12 13 14 15 16 17 17 13 6 7 10 12 15 18 21 24 26 27 27 27 26 27 26 24 22 20 19 21 21 20 19 17 17 17 16 15 15 13
4 4 7 3 3 4 7 7 4 5 5 1 2 4 3 4 7 5 2 1 3 4 1 0 3 2 1 1 1 5 7 7 8 6 6 7 8 8 8 6 5 5 5 5 4 5 6 8 11 13 13 14 15 16 16 14 10 7 8 9 15 19 21 24 25 26 27 28 28 28 27 25 24 22 20 22 22 20 17 16 17 16 14 14 14 13
4 3 6 1 3 6 3 5 2 1 5 5 3 5 2 3 5 4 2 2 4 3 2 1 4 4 3 1 2 7 8 7 7 6 6 7 8 9 8 7 7 7 6 5 6 6 8 10 12 13 13 13 14 15 15 14 13 11 11 10 10 16 22 25 24 24 26 28 30 30 27 26 25 23 23 23 23 21 19 18 18 17 15 15 16 15
3 0 7 3 4 4 3 6 3 4 2 4 5 4 4 3 1 1 2 2 2 2 1 3 2 3 3 2 4 7 8 7 6 5 6 6 7 7 7 7 8 8 6 7 7 8 9 12 15 15 15 14 15 15 14 13 13 13 12 12 12 14 19 20 19 20 22 24 27 28 27 26 25 24 23 23 22 21 20 19 19 19 17 16 17 18
3 2 4 5 3 1 3 3 3 2 4 4 4 3 2 3 4 2 2 3 4 3 2 2 1 2 3 3 5 9 9 8 7 5 6 6 6 6 5 6 7 7 7 7 8 8 9 11 15 17 17 17 16 16 16 15 15 14 13 13 14 16 18 18 18 18 19 20 22 23 23 23 23 23 23 22 22 21 20 20 20 19 18 17 18 19
2 2 2 5 4 1 1 1 6 6 3 3 3 1 0 2 2 2 1 2 4 4 3 3 0 4 4 2 5 9 9 8 7 6 6 5 5 6 6 6 6 6 6 7 7 7 8 11 15 16 18 18 17 18 19 18 17 16 15 14 14 15 15 15 15 15 16 19 20 19 18 19 20 21 22 22 21 21 20 20 20 20 20 20 21 20
2 2 3 3 4 2 2 5 5 8 6 4 3 2 3 3 4 3 0 1 2 4 4 5 2 4 3 1 4 8 8 8 8 7 6 5 6 7 6 7 7 7 7 7 7 7 8 12 15 17 19 19 19 21 22 21 18 17 18 18 17 15 14 14 12 9 9 12 16 15 14 16 17 18 19 21 20 20 20 21 21 21 21 23 23 21
3 4 3 2 1 2 4 5 1 6 9 7 3 2 2 4 5 5 3 3 1 3 2 4 2 3 3 1 3 7 7 6 6 8 8 6 6 6 6 6 7 7 7 7 7 7 9 12 15 17 19 21 21 22 23 22 21 20 20 19 20 18 16 16 15 10 7 7 11 12 11 12 15 17 18 19 19 18 19 21 21 21 23 25 24 22
2 4 2 2 2 3 5 4 5 5 8 7 3 3 3 1 3 5 5 3 3 3 2 4 2 3 2 1 4 7 7 7 6 6 8 7 5 6 6 6 6 6 7 7 7 8 10 14 16 17 18 19 21 21 22 22 22 22 22 21 21 19 18 18 18 16 11 9 8 6 6 8 11 15 16 17 18 18 19 21 23 22 24 25 24 23
1 1 3 3 2 4 4 4 5 6 5 3 2 3 2 2 4 4 2 3 3 3 3 5 2 4 2 5 7 8 9 8 7 6 7 7 5 5 5 6 6 6 7 8 8 9 10 12 14 15 15 15 18 20 21 22 22 22 22 22 21 21 19 18 18 18 16 12 8 5 4 4 8 12 12 12 12 13 16 18 21 23 24 24 24 23
3 2 3 4 4 3 2 1 2 1 2 2 3 5 5 3 4 4 3 4 3 2 3 5 3 3 4 8 8 8 9 9 7 7 7 6 6 6 5 6 6 6 7 9 9 9 9 10 13 14 15 15 17 19 20 22 23 23 23 23 23 22 21 19 17 15 15 13 9 5 6 5 8 12 12 11 8 8 10 13 16 20 22 23 24 23
4 3 2 5 5 5 5 4 3 2 3 3 4 6 6 4 2 4 4 3 5 4 2 1 5 7 8 9 9 8 9 10 7 7 7 6 6 6 6 6 6 6 7 8 8 8 8 9 12 14 15 16 17 18 19 20 21 22 23 24 24 23 21 20 17 12 11 12 9 5 6 5 6 10 13 13 12 12 13 15 17 19 19 21 24 23
5 4 3 4 5 2 3 3 3 3 4 4 3 5 6 5 4 6 4 4 7 8 1 4 7 11 9 9 10 8 8 9 8 7 7 6 6 6 6 6 7 7 8 8 8 8 9 9 10 14 16 17 18 19 20 21 21 22 23 23 25 24 22 20 16 10 7 8 8 6 4 3 5 10 13 13 14 16 18 18 20 21 20 20 22 21
6 3 3 4 7 7 6 6 7 7 6 5 5 5 6 6 6 6 2 2 3 6 6 7 9 10 7 7 9 8 8 9 9 7 6 6 7 6 6 7 7 8 8 9 8 8 8 9 9 12 15 16 18 20 21 23 24 24 25 25 25 25 22 19 16 9 5 5 6 6 4 3 7 11 13 14 16 18 20 21 22 23 21 21 21 19
5 2 2 4 7 8 8 6 6 8 6 6 7 6 6 7 8 7 3 2 3 6 10 14 11 7 5 5 7 7 6 8 9 8 7 7 7 6 6 7 7 7 7 8 8 8 7 8 10 13 15 17 19 19 20 21 22 23 25 25 25 25 22 19 16 10 5 3 4 4 4 5 9 13 14 17 18 18 20 22 21 22 21 21 21 21
4 2 2 2 6 6 7 7 7 7 8 7 8 8 7 6 8 7 5 5 7 8 10 14 12 6 3 5 7 6 5 7 9 9 8 7 6 6 6 6 6 7 7 8 8 8 8 9 11 13 15 16 18 18 18 19 20 22 24 24 24 23 21 20 18 15 11 6 1 4 7 9 12 15 15 18 19 17 17 20 20 19 20 21 22 21
4 4 0 3 5 1 2 5 6 6 9 8 7 9 9 6 5 5 4 2 4 9 13 12 7 4 3 5 7 6 6 8 9 8 7 6 6 6 6 6 6 7 8 8 8 9 9 9 10 12 14 15 17 19 20 20 21 22 23 23 22 21 21 21 20 19 16 10 5 2 7 11 14 15 16 19 20 18 18 20 19 18 19 20 21 19
4 5 2 2 4 2 0 1 2 5 6 4 3 5 6 4 3 4 4 4 2 7 10 7 5 6 7 6 6 7 7 7 6 6 6 6 6 6 6 6 6 6 7 7 8 8 8 9 11 12 14 16 18 19 20 20 20 21 21 21 22 22 22 22 22 21 19 15 11 6 5 10 13 14 15 18 19 20 20 19 18 19 20 20 20 20
3 6 3 1 4 3 2 3 3 3 2 1 3 2 2 1 4 6 5 6 6 6 6 6 7 9 7 6 7 9 8 6 5 6 6 6 5 5 5 6 5 6 6 6 6 7 9 12 14 15 17 18 19 19 19 20 19 19 19 21 22 23 23 23 23 22 22 20 17 12 9 9 11 12 13 15 15 15 17 16 16 20 22 21 21 21
4 5 3 2 3 4 1 3 2 1 3 2 2 3 3 6 8 10 9 8 8 10 11 11 9 8 8 8 8 9 9 8 8 8 8 7 6 5 5 5 5 6 6 6 6 8 11 14 16 17 19 20 20 19 20 20 20 19 20 22 23 24 24 24 24 24 23 22 20 17 14 13 12 12 13 15 15 15 14 15 17 19 21 23 24 24
6 4 3 3 2 3 1 1 1 2 2 1 3 4 4 4 5 8 8 7 5 6 10 11 9 9 10 10 9 9 10 9 8 8 8 8 6 5 5 5 5 5 6 7 8 10 12 14 16 17 19 20 21 22 21 20 20 20 21 22 23 24 24 24 25 24 23 22 21 20 18 16 15 14 15 16 16 17 17 18 20 20 20 23 25 26
6 5 3 3 2 2 3 1 1 1 1 0 1 1 2 2 2 1 3 3 4 3 6 11 11 10 10 10 9 8 8 7 7 7 7 8 7 6 6 5 6 6 8 10 11 12 14 16 17 19 20 21 22 22 21 20 20 21 23 24 24 24 25 26 26 24 23 21 20 19 19 18 18 18 18 19 19 20 21 20 22 23 22 23 27 27
6 4 5 3 1 2 4 2 1 2 2 2 4 2 2 1 2 2 1 2 3 3 5 10 12 11 10 9 8 7 5 4 5 4 5 6 6 6 6 7 8 10 11 12 14 16 18 20 20 21 21 22 22 22 21 20 20 22 25 25 25 24 25 26 26 24 23 21 19 17 18 18 18 19 21 21 21 23 25 24 24 25 25 26 28 28
8 4 4 5 2 2 4 3 2 3 2 1 3 2 1 1 2 1 1 1 3 5 5 8 12 11 9 9 7 5 3 2 3 2 2 4 5 5 5 6 9 11 13 15 15 17 20 21 22 23 23 23 22 21 21 20 21 23 25 25 25 25 25 25 24 23 22 20 18 16 16 16 16 17 19 20 19 21 26 28 27 26 25 26 28 27
6 5 4 4 3 2 3 2 1 2 1 0 1 2 3 3 2 2 2 2 4 7 6 7 10 10 9 8 5 2 1 2 5 4 2 3 4 5 5 6 8 10 13 16 16 17 21 23 24 25 24 23 21 20 21 21 22 23 24 24 24 24 24 22 22 22 22 20 19 17 15 16 16 15 16 17 16 18 22 25 26 25 25 25 26 26
4 4 3 4 4 3 3 2 1 2 1 1 1 4 4 3 1 3 3 2 4 6 5 6 9 8 6 5 3 2 2 3 6 6 4 4 4 5 6 7 8 9 11 13 14 16 20 22 24 24 23 22 21 21 21 21 22 22 22 23 23 22 21 20 20 21 21 21 20 19 16 16 16 16 16 16 15 16 18 21 23 24 24 24 24 24
1 2 2 2 3 2 3 3 0 2 1 0 2 4 2 1 1 2 1 1 4 6 6 6 6 6 6 6 5 5 5 7 8 7 5 4 4 5 6 8 9 11 13 13 14 15 17 19 22 23 22 22 22 21 21 21 22 21 21 21 21 20 19 20 20 20 20 21 21 21 19 17 16 16 17 16 16 17 17 19 21 24 25 25 24 24
1 2 2 1 2 2 3 3 0 2 1 2 3 2 1 0 2 3 3 4 5 6 7 6 5 6 8 9 8 8 8 8 8 6 5 5 4 5 7 8 8 10 12 14 15 16 17 18 19 21 21 21 22 21 21 21 22 21 21 20 18 16 16 18 19 20 21 21 21 20 20 20 19 18 19 18 18 20 20 20 21 24 25 24 24 25
0 1 2 1 1 2 2 2 2 2 2 2 1 0 1 1 2 5 5 4 5 5 5 6 5 6 10 11 10 9 9 8 6 6 5 5 5 6 7 6 6 8 9 10 12 14 16 16 17 19 21 21 21 21 20 20 21 21 20 19 15 13 14 16 17 19 20 21 21 21 20 21 21 21 21 21 21 22 23 22 22 23 23 23 24 25
1 2 3 2 1 2 2 2 2 3 2 0 1 2 4 5 4 5 6 6 5 4 4 6 7 7 9 12 11 9 8 7 6 6 5 5 5 6 6 6 6 7 8 9 10 12 13 14 16 18 20 20 20 20 18 19 20 20 20 18 16 15 15 15 16 18 20 20 21 22 21 21 22 22 22 22 23 24 23 22 23 23 22 22 23 24
2 2 3 3 4 4 4 3 3 2 4 5 5 5 6 6 5 5 7 7 5 4 4 6 8 9 9 10 10 9 7 6 6 6 5 5 6 7 8 8 8 9 10 10 12 13 15 16 18 19 20 20 19 19 18 17 18 19 17 16 17 18 18 18 19 19 19 20 21 22 23 23 23 23 22 22 22 23 22 22 23 23 23 22 23 23
1 1 3 4 3 3 3 4 4 5 7 7 7 7 7 7 6 5 6 6 6 7 7 8 9 10 8 9 10 9 7 6 7 6 5 5 7 8 9 9 9 9 9 9 11 14 16 18 19 19 20 20 19 20 19 18 18 18 16 14 15 17 19 21 22 21 20 20 20 21 22 24 25 25 24 24 23 23 22 21 21 22 21 21 21 21
1 1 3 4 2 3 4 3 5 9 8 6 6 6 6 7 7 7 7 7 8 9 10 10 10 9 8 8 9 9 8 6 6 6 4 4 6 6 6 6 7 7 7 8 9 12 14 16 18 18 19 19 19 19 19 19 18 17 15 14 13 14 17 21 22 22 22 21 20 20 21 22 23 24 25 25 25 24 23 21 20 20 20 18 17 16
1 2 3 4 5 5 4 4 6 8 9 8 8 7 6 7 9 9 9 8 9 10 10 10 10 10 10 10 10 10 8 6 6 7 5 4 4 4 2 3 3 3 4 6 7 9 12 14 16 18 19 19 19 18 17 16 16 14 13 12 11 11 15 19 20 21 22 22 22 22 21 21 22 22 23 24 25 24 23 21 20 20 19 17 15 14
2 3 4 5 5 3 3 4 4 5 5 6 7 8 8 8 10 11 10 8 8 9 9 9 10 11 13 14 13 11 8 7 8 8 6 4 3 2 1 0 1 2 2 5 7 10 12 14 15 17 19 19 20 20 18 16 15 13 12 12 10 9 11 15 17 19 20 20 21 21 21 22 22 22 23 24 25 25 24 22 20 20 19 18 16 15
2 4 4 4 4 3 4 5 4 5 6 6 8 9 7 7 9 11 10 8 8 9 9 10 10 9 9 11 14 13 10 8 9 8 6 4 4 2 1 3 6 7 6 6 8 11 13 13 13 15 17 18 19 19 19 18 17 14 13 12 11 10 11 13 15 16 16 17 18 18 19 20 20 21 21 22 22 22 23 22 21 20 19 19 17 16
Wind_Direction
141 166 192 186 201 197 198 187 168 164 112 129 76 52 320 318 293 281 272 275 247 199 249 213 212 247 226 129 158 189 170 155 163 179 193 191 179 170 171 187 198 202 207 199 196 195 195 201 203 199 195 192 193 196 191 185 185 186 187 189 196 207 212 207 202 204 207 207 211 219 222 222 223 224 224 224 224 224 226 225 222 216 212 212 213 214
130 176 214 209 204 196 191 158 142 148 53 45 7 353 322 300 269 279 278 290 252 181 256 189 199 246 220 137 268 172 164 176 175 177 186 183 176 176 182 192 197 201 205 192 191 194 198 202 201 197 193 188 189 192 188 185 184 187 190 194 199 207 212 210 206 206 208 209 212 216 221 221 221 222 223 226 228 228 231 229 222 216 213 212 211 212
150 210 230 215 190 168 156 118 121 144 121 101 103 85 307 269 284 298 282 302 332 171 256 153 178 240 270 54 224 173 180 196 188 182 180 173 169 178 189 190 193 197 197 191 191 198 201 197 186 181 162 159 177 185 188 185 185 189 194 200 205 207 210 212 210 209 209 211 215 218 224 226 225 226 226 228 230 227 227 230 229 223 217 214 210 207
172 243 232 190 147 147 206 130 114 113 111 124 136 130 255 258 289 296 284 313 343 135 194 140 165 264 344 11 347 228 248 242 211 189 174 178 177 182 192 188 184 187 189 191 192 195 187 127 80 69 63 81 128 157 176 182 187 194 200 207 211 211 213 214 212 211 211 212 216 219 227 231 228 228 229 229 231 230 229 231 230 221 214 213 209 206
221 246 191 141 146 167 212 183 124 140 256 241 189 164 220 250 216 226 275 321 339 1 70 98 65 325 343 8 34 357 326 308 206 144 150 208 204 180 201 202 196 194 191 185 169 114 79 72 75 88 136 168 164 167 178 180 184 195 205 213 217 217 218 220 218 215 212 213 215 214 218 221 219 221 224 223 227 233 234 231 225 214 214 213 205 204
242 236 122 125 166 175 200 222 159 165 206 290 232 190 202 232 237 242 300 356 27 8 12 84 76 303 310 337 70 29 344 330 331 130 150 233 247 170 193 212 233 288 40 82 84 83 86 89 107 143 176 179 170 173 185 188 187 191 201 211 218 220 222 227 228 223 219 219 216 212 213 212 209 207 208 214 222 230 234 233 227 220 223 220 208 205
232 184 146 153 173 173 195 231 206 164 151 281 236 195 198 209 200 209 250 54 78 343 332 80 113 236 317 353 357 9 8 6 17 16 355 306 262 225 194 190 56 30 51 74 86 92 85 86 106 134 153 173 177 175 191 196 194 192 194 202 212 217 222 230 236 235 227 222 222 221 219 218 217 216 218 224 226 229 234 236 232 229 229 225 214 204
179 162 169 165 158 173 195 228 213 159 139 236 233 167 169 168 162 184 134 92 178 218 337 19 100 131 316 327 336 356 64 42 27 9 347 316 275 295 54 62 67 59 68 84 86 80 73 88 108 135 154 179 186 176 194 200 201 200 196 198 202 208 218 224 230 248 246 232 234 234 226 224 228 233 236 235 232 232 236 237 234 232 230 225 216 203
166 164 180 171 158 187 203 204 186 155 155 241 225 146 156 165 159 164 110 91 360 84 344 319 51 94 275 294 333 358 65 45 22 10 360 342 309 101 88 89 91 80 78 77 79 80 72 87 105 135 165 196 208 186 179 193 206 209 206 208 207 208 218 220 217 224 247 243 243 246 238 230 232 237 243 242 238 234 231 231 230 230 231 226 212 200
197 184 177 161 163 204 215 194 163 161 196 244 201 129 91 84 109 102 99 104 40 63 230 273 35 111 270 314 345 357 28 18 1 13 17 9 22 69 84 87 91 86 86 81 74 72 64 75 96 131 184 217 231 235 117 156 202 210 215 215 212 217 222 221 218 220 231 236 240 248 247 241 239 239 244 243 234 228 222 221 220 219 223 219 202 193
276 204 155 156 183 208 211 187 166 179 195 201 150 129 73 34 41 51 65 92 68 30 248 251 182 113 199 317 347 352 349 347 359 27 30 28 37 52 65 71 72 70 73 74 66 51 44 65 98 236 245 247 252 257 250 238 219 213 216 213 209 206 193 198 213 219 224 227 234 243 246 248 248 242 240 237 228 226 221 216 213 206 211 210 196 188
329 22 184 222 211 198 182 169 184 196 192 113 111 136 145 322 21 33 356 50 91 250 261 251 164 98 106 260 322 359 16 29 35 39 38 43 46 49 56 60 59 63 63 60 61 34 17 11 297 263 256 257 257 257 247 238 243 226 218 217 210 177 141 154 189 208 213 216 231 243 243 243 247 244 239 233 226 225 219 209 206 203 204 201 191 187
321 233 253 284 231 181 152 159 204 192 157 123 110 103 129 238 28 49 305 56 151 240 249 220 166 80 90 224 303 6 44 42 39 44 45 51 57 54 52 49 45 51 47 38 37 17 6 357 344 334 316 303 295 296 287 252 241 231 218 218 208 157 134 155 190 205 206 208 228 243 241 239 242 244 241 235 226 221 217 207 199 194 195 196 193 192
310 287 299 306 263 186 148 153 163 163 163 161 157 127 132 123 96 187 264 124 207 250 232 221 166 99 149 180 301 21 52 54 52 53 55 59 61 59 53 45 39 35 29 20 14 7 3 359 358 355 346 340 337 338 339 301 252 240 222 211 198 174 169 184 203 209 204 207 224 237 237 235 237 241 241 236 227 220 217 212 201 194 195 199 201 197
186 284 264 198 235 188 164 179 173 157 154 174 168 130 141 152 137 186 204 162 198 226 266 287 79 152 181 138 105 68 55 66 71 55 54 64 62 66 61 52 46 35 26 19 9 10 9 2 2 359 353 351 347 348 352 339 279 253 230 207 196 193 192 201 213 211 206 210 219 227 231 231 234 239 240 237 233 225 220 216 207 201 200 202 206 204
154 233 250 233 238 176 171 191 154 131 131 217 149 105 142 181 142 131 172 172 180 155 357 345 80 159 167 114 96 94 62 63 76 58 51 59 55 67 66 57 57 44 32 25 14 16 14 7 5 0 357 358 358 359 359 352 324 271 249 221 209 208 205 210 217 215 213 216 216 218 224 227 230 233 236 237 235 229 225 220 214 209 205 201 202 206
127 252 275 283 266 217 178 178 164 152 163 151 117 148 199 174 122 112 180 215 110 127 210 315 116 108 124 117 90 102 79 67 77 65 57 60 56 64 63 60 61 50 42 32 20 17 12 9 9 7 6 6 8 9 6 2 354 319 290 254 223 219 218 218 221 220 220 220 217 217 219 221 222 223 228 233 231 226 222 216 213 212 204 193 193 200
139 262 287 221 225 252 178 139 99 106 141 123 164 192 166 83 89 104 143 3 51 129 252 347 120 153 151 203 173 117 99 87 86 74 65 60 58 64 60 56 51 38 31 23 18 18 15 16 16 15 15 15 16 14 9 7 0 346 329 307 262 241 237 231 227 223 222 222 220 218 216 216 217 217 221 225 225 222 215 207 205 206 200 190 188 191
120 323 291 267 224 264 49 86 62 1 53 123 166 164 111 113 170 83 130 141 102 153 262 20 84 175 162 182 169 130 114 112 103 87 81 67 63 64 52 48 42 29 22 18 21 22 20 22 21 20 22 22 24 21 16 15 5 354 340 319 298 280 265 253 242 229 221 221 222 221 218 217 216 214 215 218 220 218 212 204 199 198 198 193 189 186
116 110 281 281 261 259 37 69 161 266 352 58 89 77 82 136 160 154 142 149 146 168 192 78 59 233 215 200 157 136 131 130 123 114 104 88 78 70 49 48 42 30 24 18 21 22 18 21 21 22 26 26 27 26 23 24 18 7 353 330 309 301 294 283 268 246 226 221 225 226 223 219 215 213 213 215 217 215 211 205 197 193 194 193 189 185
101 116 235 288 320 60 113 236 190 184 172 118 105 105 207 92 113 148 113 105 133 148 164 131 143 262 248 217 152 139 136 136 133 124 110 95 85 71 49 50 45 34 30 18 14 18 13 14 16 19 23 21 21 24 25 26 21 12 4 350 331 318 316 310 289 260 237 230 230 232 229 221 215 213 213 213 214 214 210 204 198 192 191 189 184 183
146 144 183 284 355 63 253 273 210 173 152 142 143 161 174 133 116 128 180 297 109 115 157 153 178 261 263 248 155 138 137 142 140 127 106 81 74 66 47 42 42 35 31 17 8 13 11 10 11 15 18 15 12 15 20 21 17 11 8 5 358 350 344 338 322 290 261 240 230 231 231 223 216 212 212 211 211 212 208 202 199 194 190 186 178 176
143 114 140 248 299 201 269 316 51 128 108 97 97 99 119 123 122 132 182 241 101 92 131 117 107 264 264 246 139 126 130 133 129 123 110 82 60 60 47 35 37 35 28 18 9 7 9 11 14 18 18 12 6 10 15 15 14 14 12 11 10 7 2 354 345 334 313 270 239 229 229 228 219 212 212 212 211 211 207 201 198 194 189 184 175 169
118 103 120 238 308 305 293 337 19 60 83 82 44 39 80 125 140 139 165 183 130 136 137 86 73 261 248 162 120 113 112 105 97 101 101 89 57 48 44 31 30 32 24 19 16 8 8 14 18 20 18 9 3 6 10 10 11 15 17 17 16 13 9 1 355 352 339 306 274 246 238 237 220 212 214 216 215 212 204 198 194 192 188 182 173 169
172 130 112 121 61 352 326 341 357 10 43 68 17 359 13 97 111 118 123 84 100 168 146 118 182 252 191 128 111 104 100 93 85 79 82 84 67 47 39 27 23 27 23 17 16 11 8 14 18 17 16 12 5 2 4 6 8 12 16 17 19 18 13 7 3 2 352 333 317 302 282 243 204 206 216 221 217 207 195 190 189 189 187 180 173 173
120 122 120 136 147 164 178 223 250 347 30 31 16 1 5 59 111 136 124 91 127 186 118 121 180 218 141 123 116 112 105 92 82 78 70 65 60 46 32 28 23 21 22 17 14 9 4 10 13 11 11 13 8 2 1 3 5 9 12 15 19 20 15 11 11 9 354 342 334 304 273 241 202 201 210 213 207 195 189 190 190 189 188 180 173 175
101 81 86 129 146 180 187 208 232 157 93 56 10 360 359 360 60 108 114 147 168 144 71 174 171 146 137 131 123 121 113 104 95 81 71 60 52 43 34 31 25 21 21 16 12 7 4 7 7 7 9 10 8 4 2 3 5 8 11 13 16 19 16 9 9 8 349 338 336 306 269 253 212 200 205 204 196 190 192 195 195 192 191 185 176 177
99 55 2 87 93 94 132 98 33 57 92 96 57 7 357 358 44 87 108 175 153 126 101 238 161 137 141 137 127 125 117 111 101 80 72 66 54 47 37 29 25 22 17 11 4 0 7 10 3 3 7 10 9 5 4 6 7 10 14 14 14 17 18 10 4 1 342 326 324 315 289 249 205 198 201 196 185 182 184 189 192 190 190 189 181 179
107 58 341 75 68 41 47 59 63 76 80 73 69 40 16 27 63 88 100 246 154 139 161 169 144 129 129 123 117 118 115 110 102 85 75 70 59 47 34 27 25 19 11 6 358 354 4 9 3 1 3 7 9 7 7 7 7 10 14 16 16 18 20 16 6 355 330 302 301 302 289 219 191 189 189 183 177 177 181 184 185 183 186 190 185 182
104 56 331 92 75 40 24 24 55 89 91 56 43 36 36 56 69 74 70 42 80 118 134 131 117 95 89 97 97 99 102 103 96 83 74 71 61 50 37 28 22 14 8 1 353 350 357 0 3 5 5 8 8 6 6 6 6 10 13 16 18 18 21 26 24 15 1 311 273 261 243 209 193 187 184 179 174 172 179 182 179 180 189 193 187 185
82 127 248 82 71 28 14 33 49 79 98 78 40 20 22 50 61 57 61 76 78 88 106 111 106 86 72 93 95 98 101 97 92 85 79 73 63 60 53 34 19 11 4 356 352 353 350 352 4 9 7 7 7 7 7 7 7 12 14 16 18 18 23 35 42 42 36 23 315 205 203 204 197 190 184 180 177 179 185 186 185 189 193 191 187 187
74 117 181 62 81 24 9 63 59 61 79 75 40 13 6 20 59 62 49 57 110 122 117 115 121 130 122 104 92 81 78 86 94 95 90 79 64 61 59 43 25 13 3 356 355 356 351 349 357 3 4 4 8 12 13 12 14 16 14 15 18 21 29 38 45 49 47 40 37 158 184 189 193 192 184 179 181 189 189 185 188 194 191 185 185 188
106 126 137 97 107 120 350 58 39 48 64 54 6 354 346 350 57 70 44 17 63 128 133 139 149 135 127 121 103 80 66 66 80 89 90 89 78 67 61 48 28 13 6 360 356 356 354 351 350 355 2 5 8 12 14 17 21 19 17 19 24 30 35 39 44 48 50 48 45 50 112 159 177 185 182 179 184 191 190 182 180 184 183 177 178 180
107 122 137 124 106 120 288 317 15 63 98 239 304 323 329 29 72 74 60 45 54 84 98 100 110 117 118 118 113 104 92 76 71 74 73 78 80 70 59 45 24 10 5 357 354 354 355 360 0 4 11 12 10 14 18 21 25 24 25 30 35 38 39 39 42 45 47 51 54 54 67 108 141 157 164 168 172 180 184 178 167 167 170 170 168 166
108 104 108 77 97 121 342 355 56 159 214 230 341 13 63 83 87 82 68 60 81 102 102 97 102 113 112 107 107 107 104 95 82 71 62 59 62 61 54 41 19 12 4 352 351 358 4 9 9 10 16 17 17 20 22 21 23 26 31 36 39 41 42 43 42 42 44 50 56 61 67 84 105 123 136 144 150 155 158 157 153 150 152 156 157 155
125 117 106 73 77 116 95 59 137 210 232 48 12 9 42 57 69 74 63 46 57 101 114 113 112 113 113 113 111 109 109 100 80 61 49 46 46 47 48 33 14 8 1 352 353 1 11 18 17 17 22 24 25 26 24 22 24 29 33 38 40 41 44 47 45 42 43 46 52 61 70 81 94 105 113 122 133 138 135 136 141 139 133 134 138 140
123 123 107 70 51 123 122 95 93 160 215 146 34 3 46 40 358 36 76 60 39 68 116 121 122 124 124 121 121 128 130 103 74 49 29 30 35 39 42 36 28 23 13 10 14 20 27 32 32 32 32 31 30 28 26 28 33 36 37 39 41 40 42 44 42 40 44 45 48 57 67 76 87 94 99 104 111 118 120 122 127 131 127 120 120 121
94 122 136 119 70 99 110 104 115 173 215 163 131 143 132 124 279 289 86 93 89 106 126 127 129 134 135 134 143 162 162 90 65 45 15 22 28 32 38 40 43 46 37 30 30 34 36 37 37 38 38 36 32 30 32 35 39 42 41 39 39 41 41 41 38 37 41 46 50 57 64 73 83 88 91 93 97 107 117 119 118 122 124 119 115 112
58 65 100 102 92 116 119 129 169 195 227 128 130 170 235 264 267 282 79 123 148 150 148 137 136 143 149 153 165 177 160 97 117 128 34 25 26 23 29 40 47 55 55 49 42 40 41 43 43 41 39 34 29 30 37 42 44 46 45 41 40 41 40 40 40 40 43 48 55 63 66 71 81 88 90 92 93 100 110 115 116 119 120 115 111 109
39 29 58 94 120 134 114 111 193 202 218 116 168 270 297 295 260 169 169 210 160 154 160 148 144 153 159 156 156 143 87 138 154 141 76 48 46 40 43 48 46 50 55 54 50 49 52 53 49 42 34 28 28 33 40 44 47 47 46 44 43 40 39 42 47 50 53 55 59 66 70 72 78 84 90 97 103 104 108 114 118 119 117 114 113 113
21 23 62 112 119 109 103 106 258 270 246 185 259 289 295 288 230 174 196 203 139 137 147 146 144 147 146 138 121 73 50 90 119 118 93 79 72 62 64 64 59 56 56 57 57 56 58 59 57 49 38 31 35 40 41 43 45 45 44 46 44 40 40 48 54 56 58 60 61 64 68 70 75 82 88 98 112 116 113 116 120 121 120 120 119 116
58 44 41 83 105 111 108 108 249 277 263 33 302 287 275 230 193 176 162 90 108 115 115 121 128 122 106 96 97 100 93 92 102 106 98 92 88 82 82 78 72 67 64 66 65 61 59 60 60 57 47 40 41 43 41 42 44 43 43 43 42 42 46 52 56 57 59 62 63 65 67 69 73 80 86 94 109 115 113 114 118 121 123 124 121 115
135 104 58 66 115 107 83 83 149 244 277 5 333 286 232 207 178 144 104 73 84 101 103 99 104 112 110 107 105 109 107 100 99 101 99 96 92 92 92 87 80 74 70 68 65 62 61 58 55 54 51 46 46 46 44 43 43 44 43 39 38 44 49 50 55 59 61 64 66 67 69 72 75 81 85 90 100 107 108 108 109 111 116 120 119 114
333 137 154 200 184 119 131 155 198 245 265 308 324 166 71 56 127 132 119 96 85 98 107 101 97 112 119 119 117 113 110 106 101 98 93 85 79 84 90 92 88 83 78 72 69 70 70 65 57 54 51 48 47 47 45 44 44 46 46 40 36 43 49 49 53 58 61 64 67 68 71 74 78 83 87 91 96 100 101 103 102 101 104 109 111 109
255 138 124 127 108 108 133 186 252 265 254 220 99 79 70 70 83 105 111 107 102 109 118 113 112 115 118 119 118 114 110 107 101 94 89 83 79 81 85 90 91 87 81 74 71 71 71 68 62 56 51 49 49 48 46 46 46 47 47 44 41 46 53 53 55 60 64 65 67 70 73 76 79 83 87 91 95 97 98 99 101 99 97 99 101 101
174 120 91 100 127 116 75 31 357 42 82 80 73 69 72 72 71 90 101 101 100 103 104 110 118 121 120 119 117 112 111 110 102 97 98 94 88 85 83 78 74 75 75 71 68 68 68 65 61 56 54 53 52 51 49 49 51 50 50 51 52 55 58 58 59 63 67 68 69 72 75 77 79 82 85 88 91 95 97 99 101 100 100 99 99 99
238 101 84 94 135 138 68 26 22 62 81 85 78 73 72 70 65 75 94 102 105 105 104 109 115 116 115 115 115 114 116 115 108 104 105 108 108 104 95 82 68 65 67 69 72 73 70 64 60 58 58 56 54 54 53 54 58 58 57 59 64 63 61 61 62 64 65 68 71 74 76 77 79 81 84 86 88 91 93 97 102 102 99 98 99 99
233 109 95 86 86 91 92 92 78 72 71 73 79 80 79 79 77 76 84 98 105 106 108 109 111 114 113 110 114 117 117 116 119 121 125 130 128 117 98 82 72 68 67 72 77 76 70 67 66 66 63 58 56 57 56 56 59 59 56 56 63 67 67 67 68 69 69 69 71 73 75 78 79 80 82 83 85 87 86 89 95 97 94 94 96 98
141 95 110 109 100 91 96 122 112 85 69 64 75 85 88 92 95 91 88 98 107 109 108 106 105 113 118 117 121 124 122 126 137 137 136 139 136 126 94 69 63 60 63 70 72 70 68 71 74 72 66 62 62 62 60 59 59 60 60 61 63 67 72 74 75 75 74 73 73 73 75 77 80 81 82 82 84 84 83 84 88 91 91 91 91 93
79 106 129 126 125 135 154 160 146 109 91 91 93 93 95 101 106 102 99 101 104 106 110 109 107 111 118 124 130 130 128 142 154 151 151 165 175 186 265 270 177 162 111 84 75 72 73 76 78 76 71 67 65 62 59 58 57 57 66 75 80 85 89 87 82 79 78 77 76 76 77 78 81 83 83 84 86 86 85 84 84 86 88 88 88 89
141 160 161 136 123 130 132 127 115 100 106 115 110 103 103 108 108 106 109 111 111 113 117 119 119 120 125 135 142 143 143 158 172 176 185 204 212 210 83 106 131 141 134 109 90 81 77 76 78 79 75 71 67 62 58 56 54 54 63 77 88 98 105 103 96 90 86 81 79 80 80 80 82 84 84 86 88 89 89 88 85 84 86 88 89 88